Showing default

SHIJIAN 6 05A (SJ-6 05A), 49961

Orbit data source: Space-Track

SHIJIAN 6 05A (SJ-6 05A), 49961 is a payload satellite owned by CASC (CN) in SSO that was launched on Fri, 10 Dec 2021 UTC via a CHANG ZHENG 4B launch vehicle from the Jiuquan Satellite Launch Center, China (JSC). Payload-class satellites include a variety of spacecraft equipped with specific instruments for various scientific and technological missions. These include communications satellites like Starlink; space stations such as the ISS; scientific satellites like the Hubble; Earth observation satellites from companies like Planet Labs, Umbra, and HawkEye 360; GPS; miniature CubeSats for education and research; and military/defense satellites.

Loading next visibility...
Identifier
49961, 2021-122A
Orbit
SSO
Country
Flag of CNCN / PRC
Related business
Manufacturer
SAST
Mission
Operational Defense Sigint
Bus & Motor
FY-1?, Unknown motor
Mass
~1,000 kg wet, ~1,000 kg dry
Launch date (UTC)
2021-12-10 (4 years ago)
Launch vehicle
CHANG ZHENG 4B
Launch site
Jiuquan Satellite Launch Center, China (JSC)
Object type
Payload
Rocket body
Debris
Shape & HBR
Box + 2 Pan, 4.3 m
Radar Cross Section
5.659 m², Large (>1 m²)

Expand to show TLE details & history
Last TLE update: 10 hours ago

TLE from 10 hours ago
0 SHIJIAN 6 05A (SJ-6 05A)
1 49961U 21122A   26106.86162407  .00001717  00000-0  14529-3 0  9996
2 49961  97.4035  78.4098 0001956 105.7434 254.4006 14.99255332239569
Epoch: 2026-04-16T20:40Z
TLE epoch observation values (Epoch: 2026-04-16T20:40:44.319Z)
Latitude
-0°
Longitude
-76.77795°
Altitude
572.624 km
Speed
7.574 km/s
True Right ascension
05h 13m 38s
True Declination
0° 00' 00"
Sunlit
Object was in daylight at epoch
Visualization orbit readout
Latitude
Unknown
Longitude
Unknown
Altitude
Unknown
Speed
Unknown
Apparent Right ascension
Unknown
Apparent Declination
Unknown
Sunlit
N/A
Visualization observer readout
Local Sidereal Time
12:51:50
Azimuth
Unknown
Elevation
Unknown
Doppler factor
Unknown
Orbital elements
Apogee altitude
567.548 km
Perigee altitude
564.831 km
Semi-major axis
6,944.326 km
Eccentricity
0.0002
Inclination
97.4035°
RAAN
78.4098°
Arg. of periapsis
105.7434°
True anomaly
254.37901°
Mean anomaly
254.4006°
Eccentric anomaly
254.38981°
Mean motion
3.75058 °/min
Orbital period
95.99 mins
BSTAR
0.00014529
Loading maneuver chart data...
Computing Atmospheric mass density...
Loading historical data...
Loading historical data...
Loading historical data...
Loading historical data...
Loading historical data...
Loading historical data...
Loading historical data...

Documentation

Showing up to 5 results
|